Regional & State Weather Roundups


514 
ASUS41 KPHI 110912
RWRPHI
REGIONAL WEATHER ROUNDUP
NATIONAL WEATHER SERVICE MOUNT HOLLY NJ
400 AM EST MON DEC 11 2017
NOTE:  "FAIR" INDICATES FEW OR NO CLOUDS BELOW 12,000 FEET WITH NO
SIGNIFICANT WEATHER AND/OR OBSTRUCTIONS TO VISIBILITY.
 * = STATION DOES NOT REPORT PRECIPITATION (E.G. RAIN, SNOW, ETC.) 
        OR FOG.
NJZ015>026-111000-
SOUTHERN NEW JERSEY
  
CITY           SKY/WX    TMP DP  RH WIND       PRES   REMARKS
POMONA         CLOUDY    36  30  79 W8        30.03S WCI  30          
WILDWOOD*        N/A     38  30  73 W12       30.04S WCI  30          
MILLVILLE      LGT SNOW  34  31  88 W13       30.05R FOG     WCI  25  
WRIGHTSTOWN    LGT SNOW  31  29  91 W9        30.01R FOG     WCI  23  
MOUNT HOLLY    LGT SNOW  31  31 100 SW3       30.04S                  
TRENTON        FLURRIES  33  26  75 W5        30.01S WCI  29          
$$
NJZ001>014-111000-
NORTHERN NEW JERSEY
  
CITY           SKY/WX    TMP DP  RH WIND       PRES   REMARKS
SUSSEX         CLOUDY    31  21  66 SW6       29.94F WCI  25          
ANDOVER*         N/A     30  22  72 SW6       29.96S WCI  24          
MORRISTOWN     CLOUDY    34  23  64 SW7       29.99S WCI  28          
NEWARK         CLOUDY    34  23  64 SW10      30.00R WCI  26          
TETERBORO      CLOUDY    34  23  64 SW8       29.99R WCI  27          
CALDWELL       CLOUDY    32  21  64 VRB5      29.99R WCI  27          
SOMERVILLE     CLOUDY    33  24  69 VRB6      29.99R WCI  28          
ALLAIRE*       FLURRIES  34  24  67 W15G23    30.03R WCI  24          
TOMS RIVER*    FLURRIES  32  29  88 W7        30.04R WCI  26          
$$
PAZ043-044-047-054-055-060>062-066>071-111000-
EASTERN PENNSYLVANIA
  
CITY           SKY/WX    TMP DP  RH WIND       PRES   REMARKS
PHILADELPHIA   CLOUDY    34  28  79 S6        30.03F WCI  29          
NORTH PHILA    CLOUDY    34  28  79 S6        30.03F WCI  29          
BLUE BELL*     CLOUDY    32  23  69 CALM      30.01F                  
DOYLESTOWN     CLOUDY    30  24  78 CALM      29.99F                  
QUAKERTOWN*    CLOUDY    32  23  69 CALM      29.98F                  
PERKASIE*      CLOUDY    30  23  74 SE3       29.99F                  
POTTSTOWN      CLOUDY    33  20  58 CALM      30.01S                  
LANCASTER      FLURRIES  34  23  64 SW7       29.99S WCI  28          
COATESVILLE    MOCLDY    34  23  64 CALM      30.00S                  
READING        CLOUDY    33  25  72 SW3       29.98S                  
ALLENTOWN      CLOUDY    31  23  72 SW5       29.98S WCI  26          
MOUNT POCONO   CLOUDY    24  20  84 W9        29.87S WCI  14          
HAZLETON       CLOUDY    28  19  69 CALM      29.93S                  
LEHIGHTON      CLOUDY    30  27  86 CALM      29.98S                  
WILKES BARRE   CLOUDY    30  21  69 SW9       29.93R WCI  22          
$$
DEZALL-MDZ008-012-015-019-020-111000-
DELAWARE AND EASTERN MARYLAND
  
CITY           SKY/WX    TMP DP  RH WIND       PRES   REMARKS
WILMINGTON     CLOUDY    34  30  85 S6        30.04S WCI  29          
DOVER          CLOUDY    34  34 100 W8        30.04F WCI  27          
GEORGETOWN     CLOUDY    36  30  79 W3        30.04F                  
EASTON         CLOUDY    37  29  71 CALM      30.08F                  
ABERDEEN       CLOUDY   N/A N/A N/A CALM      30.03F                  
PATUXENT       PTCLDY    35  29  78 W5        30.04S WCI  31          
OCEAN CITY     CLOUDY    36  30  79 SW5       30.05F WCI  32          
WALLOPS ISLAND PTCLDY    34  30  85 S6        30.05F WCI  29          
CAMBRIDGE      CLOUDY    32  30  93 W3        30.05S                  
SALISBURY      CLOUDY    35  30  82 W5        30.04F WCI  31          
$$
PAZ001-021-NYZ056-072-MDZ011-DCZ001-111000-
OTHER NEARBY LOCATIONS
  
CITY           SKY/WX    TMP DP  RH WIND       PRES   REMARKS
HARRISBURG     CLOUDY    35  22  58 SW5       29.99R WCI  31          
STATE COLLEGE  CLOUDY    30  20  67 W9        29.95S WCI  21          
WILLIAMSPORT   CLOUDY    33  21  61 NW3       29.96S                  
BINGHAMTON     CLOUDY    25  17  72 W9        29.86R WCI  15          
NEW YORK CITY  CLOUDY    35  22  58 VRB3      30.00S                  
BALTIMORE      CLOUDY    34  26  72 CALM      30.03S                  
WASHINGTON DC  CLOUDY    36  28  73 SW5       30.04F WCI  32          
$$